Find Starlink 30449

NORAD ID: 57903 Int'l Des: 2023-146 Owner: SPXS Country: US Constellation: starlink operational
LEOCIRCULAR

リアルタイム位置

3D地球を読み込み中...

Starlink 30449について

説明を読み込み中...

次回通過

Passes for default location (London). Set your location on the main map for personalized predictions.

高度履歴

Loading altitude history...

軌道要素

1 57903U 23146N 26126.00401745 .00011032 00000-0 41030-3 0 9996
2 57903 43.0022 350.3537 0000625 276.6977 83.3803 15.27541459144760
Epoch: May 6, 2026 • Age: 12 hours

現在のステータス

高度 482.6 km
速度 7.63 km/s
衛星直下点 4.07°N, 121.29°E
打ち上げ日 Sep 20, 2023
運用期間 2.6 years
タイプ internet

技術仕様

分類 Payload
質量 730.00 kg
乾燥質量 700.00 kg
総質量 730.00 kg
長さ 0.30 m
直径 4.10 m
スパン 29.00 m
形状 Box + pan
製造者 SPXS
バスタイプ Starlink V2M
フェーズステータス In Orbit
所有者/国 SPXS/US

Most Searched